Погода в Монтемор-у-Нову

Португалия     38°38′55″N   8°12′49″W
темп.,
°C
ветер,
м/с
пор.,
м/с
влажн.,
%
обл.,
%
осадки,
мм/ч
давл.,
гПа
погр.,
м
8 декабря, ср
ср800:00+11сз4109328 2.5 1020640
03:00+9з312885 0.1 1020493
06:00+9сз5128545 0.3 1021996
09:00+9зсз3118212 0.1 10231088
12:00+13сз7125890 0.1 10231802
15:00+12зсз6136736 0.1 10231626
18:00+11сз6137575 0.3 10241261
21:00+8зсз3886100 0.0 1027230
9 декабря, чт
чт900:00+8зсз239091 0.0 102761
03:00+7з229510 0.0 102817
06:00+9з2109198 0.0 1028412
09:00+10з3129047 0.0 1028569
12:00+15сз6117054 0.1 10281189
15:00+15сз51172100 0.2 10261272
18:00+11сз39888 0.2 1028334
21:00+9з25955 0.0 1028103
10 декабря, пт
пт1000:00+9з259525 0.0 102892
03:00+9з2898100 0.0 1027193
06:00+9з2498100 0.0 102782
09:00+11з2997100 0.0 1027338
12:00+14зсз3886100 0.0 1027862
15:00+16зсз5978100 0.1 10251060
18:00+14зсз41090100 0.2 1025634
21:00+14сз4992100 0.0 1026758
11 декабря, сб
сб1100:00+11зсз279829 0.1 1026250
03:00+10сз312954 0.0 1026438
06:00+8ссз311952 0.0 1025324
09:00+10с4128410 0.0 1027388
12:00+17с576260 0.0 1026528
15:00+18с465977 0.0 1024635
18:00+13с23885 0.0 102546
21:00+11ссв23945 0.0 102643
12 декабря, вс
вс1200:00+10св23925 0.0 102640
03:00+10всв23920 0.0 102644
06:00+9в22914 0.0 102518
09:00+11в25795 0.0 1026144
12:00+18в34485 0.0 1026563
15:00+19всв23475 0.0 1024814
18:00+13в22735 0.0 102621
21:00+11в22785 0.0 102621